EA5SW-13 Weather Reports


Display with metric or nautical units.
time (UTC)temp
F
wind
direction
speed
MPH
gust
MPH
rain 1hr
in
rain 24hr
in
rain mn
in
humidity
%
barometer
mb
20260503221722 65 0.0 0.0 0.00 0.00 0.00 79
20260503220638 0 0.0 0.0 0.00 0.00 0.00
20260503215742 65 0.0 0.0 0.00 0.00 0.00 78
20260503214639 65 0.0 0.0 0.00 0.00 0.00 78
20260503213705 65 0.0 0.0 0.00 0.00 0.00 78
20260503212638 65 0.0 0.0 0.00 0.00 0.00 78
20260503211703 65 0.0 0.0 0.00 0.00 0.00 78
20260503210638 65 0.0 0.0 0.00 0.00 0.00 79
20260503205703 65 0.0 0.0 0.00 0.00 0.00 79
20260503204726 65 0.0 0.0 0.00 0.00 0.00 78
20260503203753 65 0.0 0.0 0.00 0.00 0.00 78
20260503202639 65 0.0 0.0 0.00 0.00 0.00 78
20260503201703 65 0.0 0.0 0.00 0.00 0.00 78
20260503200638 0 0.0 0.0 0.00 0.00 0.00
20260503195702 66 0.0 0.0 0.00 0.00 0.00 77
20260503194638 66 0.0 0.0 0.00 0.00 0.00 77
20260503193702 66 0.0 0.0 0.00 0.00 0.00 76
20260503192638 66 0.0 0.0 0.00 0.00 0.00 76
20260503191723 66 0.0 0.0 0.00 0.00 0.00 75
20260503190638 66 0.0 0.0 0.00 0.00 0.00 75
20260503185703 66 0.0 0.0 0.00 0.00 0.00 74
20260503184638 67 0.0 1.0 0.00 0.00 0.00 74
20260503183723 67 0.0 1.0 0.00 0.00 0.00 73
20260503182639 67 0.0 0.0 0.00 0.00 0.00 73
20260503181703 67 0.0 1.0 0.00 0.00 0.00 73
20260503180638 67 0.0 0.0 0.00 0.00 0.00 71
20260503175703 67 0.0 0.0 0.00 0.00 0.00 71
20260503174639 68 0.0 1.0 0.00 0.00 0.00 70
20260503173703 68 0.0 1.0 0.00 0.00 0.00 70
20260503172639 68 0.0 0.0 0.00 0.00 0.00 70
20260503171702 68 0.0 0.0 0.00 0.00 0.00 70
20260503170639 68 0.0 0.0 0.00 0.00 0.00 70
20260503150700 0 0.0 0.0 0.00 0.00 0.00
20260503130639 74 0.0 1.0 0.00 0.00 0.00 54
20260503110239 70 0.0 1.0 0.00 0.00 0.00 66
20260503080639 65 0.0 1.0 0.00 0.00 0.00 81
20260503072639 65 0.0 0.0 0.00 0.00 0.00 80
20260503071704 65 0.0 0.0 0.00 0.00 0.00 81
20260503070640 65 0.0 0.0 0.00 0.00 0.00 81
20260503054504 64 0.0 0.0 0.00 0.00 0.00 80
20260503053439 65 0.0 0.0 0.00 0.00 0.00 80
20260503052503 65 0.0 0.0 0.00 0.00 0.00 80
20260503051440 65 0.0 0.0 0.00 0.00 0.00 80
20260503050504 65 0.0 1.0 0.00 0.00 0.00 80
20260503045500 65 0.0 0.0 0.00 0.00 0.00 80
20260503044504 65 0.0 0.0 0.00 0.00 0.00 80
20260503043459 65 0.0 1.0 0.00 0.00 0.00 80
20260503042504 65 0.0 0.0 0.00 0.00 0.00 80
20260503041500 65 0.0 1.0 0.00 0.00 0.00 80
20260503040524 65 0.0 1.0 0.00 0.00 0.00 80
20260503035306 65 0.0 0.0 0.00 0.00 0.00 81
20260503034239 65 0.0 1.0 0.00 0.00 0.00 81
20260503033303 65 0.0 1.0 0.00 0.00 0.00 82
20260503032241 65 0.0 0.0 0.00 0.00 0.00 82
20260503031304 65 0.0 0.0 0.00 0.00 0.00 82
20260503030239 65 0.0 0.0 0.00 0.00 0.00 82
20260503025704 65 0.0 0.0 0.00 0.00 0.00 82
20260503024640 65 0.0 0.0 0.00 0.00 0.00 82
20260503023704 65 0.0 0.0 0.00 0.00 0.00 82
20260503022640 65 0.0 0.0 0.00 0.00 0.00 82
20260503021704 65 0.0 0.0 0.00 0.00 0.00 82
20260503020640 0 0.0 0.0 0.00 0.00 0.00
20260503015704 65 0.0 0.0 0.00 0.00 0.00 82
20260503014640 65 0.0 0.0 0.00 0.00 0.00 82
20260503013704 65 0.0 0.0 0.00 0.00 0.00 82
20260503012640 65 0.0 0.0 0.00 0.00 0.00 82
20260503011704 65 0.0 0.0 0.00 0.00 0.00 82
20260503010639 66 0.0 1.0 0.00 0.00 0.00 81
20260503005704 65 0.0 1.0 0.00 0.00 0.00 81
20260503004720 66 0.0 1.0 0.00 0.00 0.00 81
20260503003724 66 0.0 0.0 0.00 0.00 0.00 81
20260503002700 66 0.0 0.0 0.00 0.00 0.00 82
20260503001704 66 0.0 1.0 0.00 0.00 0.00 82
20260503000720 0 0.0 0.0 0.00 0.00 0.00
20260502235724 66 0.0 0.0 0.00 0.00 0.00 81
20260502234640 66 0.0 0.0 0.00 0.00 0.00 81
20260502233704 66 0.0 0.0 0.00 0.00 0.00 81
20260502232640 66 0.0 0.0 0.00 0.00 0.00 81
20260502231704 66 0.0 1.0 0.00 0.00 0.00 81
20260502230640 66 0.0 0.0 0.00 0.00 0.00 81
20260502225704 66 0.0 0.0 0.00 0.00 0.00 81
20260502224640 66 0.0 0.0 0.00 0.00 0.00 80
20260502223704 66 0.0 0.0 0.00 0.00 0.00 80
20260502222640 66 0.0 0.0 0.00 0.00 0.00 80